Voltar ao catálogo

OPS 7684 DEB

AtivoPO
NORAD 3618·DEBRIS·🇺🇸 United States

Lançado Dec 12, 1968 de Vandenberg Space Force Base

Loading…

Próximas Passagens (próximas 24 horas)

TLE

AtualizadoSource: Space-Track

Época: Sep 13, 2026, 02:26 UTC

1 03618U 68112D   26256.10162880  .00000079  00000-0  43268-3 0  9995
2 03618  80.5350 129.4636 0085669  13.9924 138.4587 12.55911077646093

Acompanhe OPS 7684 DEB em tempo real com AllMySat

Download on the App Store